"2016-04-17 00:00:00",1553691,11.14,37.9,6.282,1.248,3.573,99.53688,-1.88,-0.653,96.5,0,109.6,13.38,-1.13,359.9
"2016-04-17 00:00:30",1553692,11.16,36.6,6.485,1.322,2.712,99.53858,-1.876,-0.652,96.5,0,109.6,13.38,-1.13,358.6
"2016-04-17 00:01:00",1553693,10.92,36.78,6.756,1.244,-1.946,99.53943,-1.874,-0.658,96.5,0,109.6,13.37,-1.13,358.8
"2016-04-17 00:01:30",1553694,10.37,38.12,6.106,1.307,-28.39,99.53971,-1.873,-0.648,96.5,0,109.6,13.38,-1.13,0.1
"2016-04-17 00:02:00",1553695,9.72,37.84,6.073,1.229,-45.84,99.53944,-1.874,-0.629,96.5,0,109.5,13.38,-1.13,359.8
"2016-04-17 00:02:30",1553696,9.57,36.87,6.425,1.208,-55.24,99.54482,-1.86,-0.635,96.6,0,109.6,13.38,-1.11,358.9
"2016-04-17 00:03:00",1553697,9.66,38.06,5.966,1.159,-55.24,99.54934,-1.848,-0.628,96.5,0,109.6,13.38,-1.10,0.1
"2016-04-17 00:03:30",1553698,9.48,36.89,6.423,1.247,-55.16,99.55444,-1.835,-0.639,96.5,0,109.6,13.38,-1.09,358.9
"2016-04-17 00:04:00",1553699,8.27,39.95,6.451,1.306,-53.38,99.55671,-1.83,-0.632,96.5,0,109.6,13.38,-1.08,2.0
"2016-04-17 00:04:30",1553700,9.8,36.32,7.476,2.025,-41.14,99.55727,-1.828,-0.593,96.5,0,109.6,13.38,-1.08,358.3
"2016-04-17 00:05:00",1553701,11.52,32.12,6.366,1.299,-33.13,99.55586,-1.832,-0.614,96.5,0,109.6,13.38,-1.09,354.1
"2016-04-17 00:05:30",1553702,10.91,33.01,6.225,1.385,-19.05,99.55727,-1.828,-0.629,96.5,0,109.6,13.37,-1.08,355.0
"2016-04-17 00:06:00",1553703,10.58,32.48,6.332,1.16,4.538,99.55643,-1.83,-0.626,96.5,0,109.6,13.38,-1.08,354.5
"2016-04-17 00:06:30",1553704,10.64,32.8,6.395,1.301,5.122,99.55558,-1.832,-0.617,96.5,0,109.6,13.38,-1.09,354.8
"2016-04-17 00:07:00",1553705,10.25,33.23,6.158,1.241,4.729,99.55502,-1.834,-0.598,96.5,0,109.6,13.38,-1.09,355.2
"2016-04-17 00:07:30",1553706,10.61,32.86,6.233,1.235,4.887,99.55502,-1.834,-0.61,96.5,0,109.6,13.37,-1.09,354.9
"2016-04-17 00:08:00",1553707,10.41,32.34,6.458,1.247,5.676,99.55389,-1.837,-0.604,96.5,0,109.6,13.37,-1.09,354.3
"2016-04-17 00:08:30",1553708,10.52,33.1,6.286,1.304,5.274,99.55502,-1.834,-0.597,96.5,0,109.6,13.37,-1.09,355.1
"2016-04-17 00:09:00",1553709,10.97,33.42,6.407,1.287,5.62,99.55473,-1.835,-0.6,96.5,0,109.6,13.37,-1.09,355.4
"2016-04-17 00:09:30",1553710,10.45,33.28,5.948,1.357,5.347,99.55474,-1.835,-0.572,96.5,0,109.6,13.37,-1.09,355.3
"2016-04-17 00:10:00",1553711,10.39,32.01,6.365,1.238,5.363,99.55785,-1.827,-0.589,96.5,0,109.6,13.37,-1.08,354.0
"2016-04-17 00:10:30",1553712,10.62,32.35,6.253,1.132,5.179,99.55758,-1.827,-0.62,96.5,0,109.6,13.37,-1.08,354.4
"2016-04-17 00:11:00",1553713,9.92,31.96,6.112,1.278,5.093,99.56126,-1.818,-0.589,96.5,0,109.6,13.37,-1.07,354.0
"2016-04-17 00:11:30",1553714,10.71,33.11,6.099,1.161,5.413,99.56635,-1.805,-0.565,96.5,0,109.6,13.37,-1.06,355.1
"2016-04-17 00:12:00",1553715,11.1,33.17,6.076,1.285,5.236,99.56522,-1.808,-0.566,96.5,0,109.6,13.37,-1.06,355.2
"2016-04-17 00:12:30",1553716,10.63,31.6,6.278,1.477,4.819,99.57003,-1.796,-0.572,96.5,0,109.6,13.37,-1.05,353.6
"2016-04-17 00:13:00",1553717,10.55,31.85,6.498,1.238,4.551,99.56834,-1.8,-0.564,96.5,0,109.6,13.37,-1.05,353.9
"2016-04-17 00:13:30",1553718,10.58,32.51,6.027,1.294,3.758,99.56976,-1.796,-0.589,96.5,0,109.6,13.37,-1.05,354.5
"2016-04-17 00:14:00",1553719,10.8,32.13,6.533,1.463,1.669,99.56976,-1.796,-0.544,96.5,0,109.6,13.37,-1.05,354.1
"2016-04-17 00:14:30",1553720,11.16,32.67,6.422,1.361,3.672,99.57401,-1.785,-0.548,96.5,0,109.6,13.37,-1.04,354.7
"2016-04-17 00:15:00",1553721,10.31,33.55,6.1,1.412,-16.49,99.57967,-1.771,-0.524,96.5,0,109.6,13.37,-1.03,355.5
"2016-04-17 00:15:30",1553722,10.61,31.78,6.785,1.46,-6.699,99.58476,-1.758,-0.573,96.5,0,109.6,13.37,-1.01,353.8
"2016-04-17 00:16:00",1553723,10.29,32.52,5.696,1.443,2.246,99.58703,-1.752,-0.539,96.5,0,109.6,13.37,-1.01,354.5
"2016-04-17 00:16:30",1553724,10.68,33.21,6.398,1.357,-3.61,99.58731,-1.751,-0.529,96.5,0,109.6,13.37,-1.01,355.2
"2016-04-17 00:17:00",1553725,11.13,32.36,6.415,1.252,1.725,99.58646,-1.754,-0.543,96.5,0,109.6,13.37,-1.01,354.4
"2016-04-17 00:17:30",1553726,11.85,32.81,6.377,1.357,6.654,99.58845,-1.749,-0.517,96.5,0,109.6,13.37,-1.00,354.8
"2016-04-17 00:18:00",1553727,10.91,31.83,6.67,1.538,6.344,99.58675,-1.753,-0.53,96.5,0,109.6,13.37,-1.01,353.8
"2016-04-17 00:18:30",1553728,10.16,31.59,6.055,1.281,7.717,99.58562,-1.756,-0.552,96.5,0,109.6,13.37,-1.01,353.6
"2016-04-17 00:19:00",1553729,10.33,32.52,6.05,1.355,0.152,99.58618,-1.754,-0.495,96.5,0,109.6,13.37,-1.01,354.5
"2016-04-17 00:19:30",1553730,9.74,33.82,7.124,1.65,-31.55,99.58704,-1.752,-0.51,96.5,0,109.6,13.37,-1.01,355.8
"2016-04-17 00:20:00",1553731,10.08,32.4,8.03,2.324,-46.52,99.58675,-1.753,-0.529,96.5,0,109.6,13.37,-1.01,354.4
"2016-04-17 00:20:30",1553732,9.74,35.59,7.13,1.525,-17.85,99.58477,-1.758,-0.493,96.5,0,109.6,13.37,-1.01,357.6
"2016-04-17 00:21:00",1553733,10.9,32.18,6.448,1.386,3.803,99.58675,-1.753,-0.502,96.5,0,109.6,13.36,-1.01,354.2
"2016-04-17 00:21:30",1553734,10,31.94,6.837,1.365,-1.59,99.58619,-1.754,-0.496,96.5,0,109.6,13.36,-1.01,353.9
"2016-04-17 00:22:00",1553735,10.38,31.17,6.427,1.406,-1.404,99.58619,-1.754,-0.508,96.5,0,109.6,13.36,-1.01,353.2
"2016-04-17 00:22:30",1553736,10.72,32.52,6.504,1.665,-20.67,99.58788,-1.75,-0.524,96.5,0,109.6,13.36,-1.00,354.5
"2016-04-17 00:23:00",1553737,10.87,33.18,6.739,1.384,-8.4,99.58873,-1.748,-0.516,96.5,0,109.6,13.36,-1.00,355.2
"2016-04-17 00:23:30",1553738,12.21,32.06,6.097,1.527,-4.416,99.58676,-1.753,-0.479,96.5,0,109.6,13.36,-1.01,354.1
"2016-04-17 00:24:00",1553739,11.39,33.33,6.545,1.306,1.733,99.58647,-1.754,-0.489,96.5,0,109.6,13.36,-1.01,355.3
"2016-04-17 00:24:30",1553740,12.15,34.29,6.18,1.312,-2.456,99.58817,-1.749,-0.486,96.5,0,109.5,13.36,-1.00,356.3
"2016-04-17 00:25:00",1553741,11.88,31.84,6.355,1.521,6.101,99.58591,-1.755,-0.511,96.5,0,109.6,13.36,-1.01,353.8
"2016-04-17 00:25:30",1553742,11.25,32.59,6.653,1.639,3.629,99.58619,-1.754,-0.511,96.5,0,109.6,13.37,-1.01,354.6
"2016-04-17 00:26:00",1553743,12.19,33.61,6.023,1.25,4.299,99.58533,-1.757,-0.491,96.5,0,109.5,13.37,-1.01,355.6
"2016-04-17 00:26:30",1553744,11.96,32.57,6.321,1.319,3.907,99.58619,-1.754,-0.498,96.5,0,109.6,13.37,-1.01,354.6
"2016-04-17 00:27:00",1553745,13.1,33.94,6.017,1.259,4.599,99.58506,-1.757,-0.487,96.5,0,109.6,13.37,-1.01,355.9
"2016-04-17 00:27:30",1553746,12.79,32.61,6.387,1.34,6.65,99.58591,-1.755,-0.517,96.5,0,109.6,13.37,-1.01,354.6
"2016-04-17 00:28:00",1553747,12.31,32.48,6.45,1.205,7.05,99.58591,-1.755,-0.519,96.5,0,109.6,13.37,-1.01,354.5
"2016-04-17 00:28:30",1553748,12.36,33.2,6.068,1.273,7.148,99.58562,-1.756,-0.491,96.5,0,109.6,13.37,-1.01,355.2
"2016-04-17 00:29:00",1553749,12.07,32.78,6.257,1.204,6.872,99.58618,-1.754,-0.502,96.5,0,109.6,13.37,-1.01,354.8
"2016-04-17 00:29:30",1553750,12.61,32.76,6.34,1.218,7.112,99.58533,-1.757,-0.501,96.5,0,109.6,13.37,-1.01,354.8
"2016-04-17 00:30:00",1553751,12.32,32.29,6.407,1.42,6.955,99.58533,-1.757,-0.516,96.5,0,109.6,13.38,-1.01,354.3
"2016-04-17 00:30:30",1553752,12.63,32.88,6.064,1.284,7.378,99.58562,-1.756,-0.515,96.5,0,109.6,13.37,-1.01,354.9
"2016-04-17 00:31:00",1553753,12.15,32.87,6.206,1.419,6.712,99.58591,-1.755,-0.519,96.5,0,109.6,13.37,-1.01,354.9
"2016-04-17 00:31:30",1553754,11.77,32.19,6.284,1.405,6.647,99.58646,-1.754,-0.509,96.5,0,109.6,13.37,-1.01,354.2
"2016-04-17 00:32:00",1553755,12.07,31.71,6.453,1.391,6.631,99.58591,-1.755,-0.529,96.5,0,109.5,13.38,-1.01,353.7
"2016-04-17 00:32:30",1553756,11.99,31.8,6.718,1.549,6.79,99.58562,-1.756,-0.544,96.5,0,109.6,13.37,-1.01,353.8
"2016-04-17 00:33:00",1553757,12.12,32.43,6.056,1.578,6.838,99.58477,-1.758,-0.519,96.5,0,109.6,13.38,-1.01,354.4
"2016-04-17 00:33:30",1553758,12.26,32.05,6.4,1.541,6.539,99.58506,-1.757,-0.503,96.5,0,109.6,13.37,-1.01,354.0
"2016-04-17 00:34:00",1553759,13.53,33.3,6.38,1.328,6.652,99.58562,-1.756,-0.539,96.5,0,109.6,13.37,-1.01,355.3
"2016-04-17 00:34:30",1553760,12.24,32.78,6.088,1.316,5.094,99.58477,-1.758,-0.508,96.5,0,109.6,13.37,-1.01,354.8
"2016-04-17 00:35:00",1553761,12.61,31.6,6.816,1.366,-19.89,99.58562,-1.756,-0.528,96.5,0,109.6,13.37,-1.01,353.6
"2016-04-17 00:35:30",1553762,12.99,32.71,6.444,1.162,-55.41,99.58562,-1.756,-0.535,96.5,0,109.6,13.37,-1.01,354.7
"2016-04-17 00:36:00",1553763,14.45,30.74,6.435,1.377,-38.82,99.58591,-1.755,-0.542,96.5,0,109.6,13.37,-1.01,352.7
"2016-04-17 00:36:30",1553764,13.77,31.63,6.528,1.473,-51.14,99.5859,-1.755,-0.541,96.5,0,109.6,13.37,-1.01,353.6
"2016-04-17 00:37:00",1553765,14.53,30.33,6.197,1.562,-46.91,99.58335,-1.762,-0.518,96.5,0,109.6,13.37,-1.02,352.3
"2016-04-17 00:37:30",1553766,14.32,32.23,6.165,1.148,-53.22,99.58194,-1.765,-0.534,96.5,0,109.6,13.37,-1.02,354.2
"2016-04-17 00:38:00",1553767,13.98,31.24,6.664,1.237,-45.23,99.57741,-1.777,-0.556,96.5,0,109.6,13.36,-1.03,353.2
"2016-04-17 00:38:30",1553768,13.7,32.8,6.052,1.487,3.869,99.57316,-1.788,-0.552,96.5,0,109.6,13.36,-1.04,354.8
"2016-04-17 00:39:00",1553769,13.87,33.29,6.013,1.197,6.507,99.57288,-1.788,-0.556,96.5,0,109.5,13.36,-1.04,355.3
"2016-04-17 00:39:30",1553770,13.97,33.34,5.931,1.268,6.528,99.57202,-1.79,-0.553,96.5,0,109.5,13.36,-1.04,355.3
"2016-04-17 00:40:00",1553771,13.95,33.41,6.163,1.205,6.622,99.57117,-1.793,-0.509,96.5,0,109.6,13.36,-1.05,355.4
"2016-04-17 00:40:30",1553772,14.13,32.68,6.456,1.225,6.066,99.57259,-1.789,-0.57,96.5,0,109.6,13.37,-1.04,354.7
"2016-04-17 00:41:00",1553773,14.02,32.68,6.21,1.229,4.108,99.57259,-1.789,-0.566,96.5,0,109.6,13.36,-1.04,354.7
"2016-04-17 00:41:30",1553774,13.93,33.16,6.411,1.277,2.557,99.57315,-1.788,-0.561,96.5,0,109.6,13.37,-1.04,355.2
"2016-04-17 00:42:00",1553775,13.84,33.62,6.408,1.324,3.207,99.5723,-1.79,-0.546,96.5,0,109.6,13.37,-1.04,355.6
"2016-04-17 00:42:30",1553776,14.4,33.74,6.327,1.188,6.372,99.57259,-1.789,-0.552,96.5,0,109.6,13.37,-1.04,355.7
"2016-04-17 00:43:00",1553777,14.46,33.01,6.153,1.326,7.269,99.57373,-1.786,-0.534,96.5,0,109.6,13.37,-1.04,355.0
"2016-04-17 00:43:30",1553778,15.53,30.38,6.419,1.652,3.633,99.576,-1.78,-0.556,96.5,0,109.6,13.37,-1.03,352.4
"2016-04-17 00:44:00",1553779,14.87,32.02,6.454,1.473,8.35,99.58194,-1.765,-0.553,96.5,0,109.6,13.37,-1.02,354.0
"2016-04-17 00:44:30",1553780,14.7,32.74,6.165,1.128,9.53,99.58025,-1.77,-0.539,96.5,0,109.6,13.37,-1.02,354.7
"2016-04-17 00:45:00",1553781,14.25,31.91,6.386,1.295,8.74,99.58449,-1.759,-0.568,96.5,0,109.6,13.37,-1.01,353.9
"2016-04-17 00:45:30",1553782,13.83,32.22,6.387,1.386,8.56,99.58421,-1.759,-0.525,96.5,0,109.6,13.37,-1.01,354.2
"2016-04-17 00:46:00",1553783,14.25,33.4,6.141,1.302,7.01,99.58449,-1.759,-0.543,96.5,0,109.6,13.37,-1.01,355.4
"2016-04-17 00:46:30",1553784,14.6,32.06,6.804,1.392,6.574,99.58562,-1.756,-0.565,96.5,0,109.5,13.38,-1.01,354.1
"2016-04-17 00:47:00",1553785,14.76,33.29,6.432,1.241,7.208,99.58675,-1.753,-0.532,96.5,0,109.6,13.37,-1.01,355.3
"2016-04-17 00:47:30",1553786,14.58,32.75,6.495,1.215,7.503,99.58618,-1.754,-0.542,96.5,0,109.6,13.37,-1.01,354.8
"2016-04-17 00:48:00",1553787,14.39,33.01,6.109,1.398,7.323,99.5876,-1.751,-0.549,96.5,0,109.6,13.38,-1.00,355.0
"2016-04-17 00:48:30",1553788,14.32,32.69,6.41,1.299,7.313,99.58591,-1.755,-0.543,96.5,0,109.6,13.38,-1.01,354.7
"2016-04-17 00:49:00",1553789,14.31,33.37,6.127,1.287,7.266,99.58788,-1.75,-0.514,96.5,0,109.6,13.38,-1.00,355.4
"2016-04-17 00:49:30",1553790,14.23,33.19,6.287,1.2,7.79,99.58477,-1.758,-0.523,96.5,0,109.6,13.38,-1.01,355.2
"2016-04-17 00:50:00",1553791,13.63,32.32,6.641,1.16,7.67,99.58533,-1.757,-0.523,96.5,0,109.6,13.38,-1.01,354.3
"2016-04-17 00:50:30",1553792,13.14,31.51,6.531,1.317,8.11,99.58562,-1.756,-0.527,96.5,0,109.6,13.38,-1.01,353.5
"2016-04-17 00:51:00",1553793,13.2,31.89,6.729,1.252,8.81,99.58533,-1.757,-0.523,96.5,0,109.5,13.38,-1.01,353.9
"2016-04-17 00:51:30",1553794,13.05,32.97,6.242,1.257,8.84,99.58675,-1.753,-0.51,96.5,0,109.6,13.38,-1.01,355.0
"2016-04-17 00:52:00",1553795,12.81,32.66,6.537,1.276,8.77,99.58817,-1.749,-0.51,96.5,0,109.6,13.38,-1.00,354.7
"2016-04-17 00:52:30",1553796,12.78,32.32,6.33,1.185,8.31,99.58874,-1.748,-0.522,96.5,0,109.6,13.38,-1.00,354.3
"2016-04-17 00:53:00",1553797,12.34,31.78,6.171,1.344,7.652,99.59326,-1.736,-0.509,96.5,0,109.6,13.38,-0.99,353.8
"2016-04-17 00:53:30",1553798,11.97,29.97,7.214,1.631,6.717,99.5927,-1.738,-0.529,96.5,0,109.6,13.37,-0.99,352.0
"2016-04-17 00:54:00",1553799,11.54,30.7,6.184,1.569,6.943,99.59525,-1.731,-0.51,96.5,0,109.6,13.37,-0.99,352.7
"2016-04-17 00:54:30",1553800,13.26,31.94,6.573,1.655,6.945,99.59753,-1.725,-0.495,96.5,0,109.6,13.37,-0.98,353.9
"2016-04-17 00:55:00",1553801,12.38,32.28,6.233,1.352,6.516,99.60007,-1.719,-0.483,96.5,0,109.6,13.37,-0.97,354.3
"2016-04-17 00:55:30",1553802,13.44,32.16,6.42,1.554,6.78,99.6012,-1.716,-0.5,96.5,0,109.6,13.37,-0.97,354.2
"2016-04-17 00:56:00",1553803,14.16,32.27,6.255,1.349,7.343,99.6012,-1.716,-0.489,96.5,0,109.6,13.37,-0.97,354.3
"2016-04-17 00:56:30",1553804,14.65,33.94,6.326,1.416,7.726,99.60007,-1.719,-0.51,96.5,0,109.6,13.37,-0.97,355.9
"2016-04-17 00:57:00",1553805,14.4,33.41,6.309,1.595,6.904,99.60036,-1.718,-0.483,96.5,0,109.6,13.37,-0.97,355.4
"2016-04-17 00:57:30",1553806,14.4,33.07,6.625,1.51,6.713,99.60262,-1.712,-0.484,96.5,0,109.6,13.37,-0.97,355.1
"2016-04-17 00:58:00",1553807,14.79,33.68,6.184,1.354,6.389,99.6012,-1.716,-0.483,96.5,0,109.6,13.37,-0.97,355.7
"2016-04-17 00:58:30",1553808,15.57,33.43,6.332,1.388,6.021,99.60319,-1.711,-0.499,96.5,0,109.6,13.37,-0.97,355.4
"2016-04-17 00:59:00",1553809,15.8,33.61,6.508,1.299,5.886,99.60319,-1.711,-0.47,96.5,0,109.6,13.37,-0.97,355.6
"2016-04-17 00:59:30",1553810,15.02,33.34,6.318,1.185,5.614,99.60658,-1.702,-0.473,96.5,0,109.6,13.38,-0.96,355.3
"2016-04-17 01:00:00",1553811,14.35,32.49,6.658,1.341,5.85,99.61026,-1.693,-0.468,96.5,0,109.6,13.38,-0.95,354.5
"2016-04-17 01:00:30",1553812,14.15,32.83,6.612,1.369,5.516,99.61281,-1.687,-0.486,96.5,0,109.6,13.38,-0.94,354.8
"2016-04-17 01:01:00",1553813,13.08,33.21,5.867,1.676,5.985,99.61451,-1.682,-0.444,96.5,0,109.6,13.38,-0.94,355.2
"2016-04-17 01:01:30",1553814,14.23,33.36,6.505,1.212,6.239,99.61225,-1.688,-0.481,96.5,0,109.6,13.38,-0.94,355.4
"2016-04-17 01:02:00",1553815,13.92,32.72,6.336,1.26,5.721,99.61311,-1.686,-0.495,96.5,0,109.6,13.38,-0.94,354.7
"2016-04-17 01:02:30",1553816,13.95,32.45,6.42,1.341,5.622,99.61366,-1.684,-0.488,96.5,0,109.6,13.38,-0.94,354.5
"2016-04-17 01:03:00",1553817,14.16,32.38,6.274,1.333,6.221,99.61254,-1.687,-0.489,96.5,0,109.6,13.38,-0.94,354.4
"2016-04-17 01:03:30",1553818,14.08,32.32,6.354,1.366,6.689,99.61622,-1.678,-0.474,96.5,0,109.6,13.38,-0.93,354.3
"2016-04-17 01:04:00",1553819,13.81,32.89,6.106,1.314,6.513,99.61876,-1.671,-0.426,96.5,0,109.6,13.38,-0.93,354.9
"2016-04-17 01:04:30",1553820,13.54,31.76,6.443,1.255,5.952,99.61877,-1.671,-0.47,96.5,0,109.6,13.38,-0.93,353.8
"2016-04-17 01:05:00",1553821,14.18,31.8,6.478,1.358,6.142,99.61961,-1.669,-0.467,96.5,0,109.6,13.38,-0.92,353.8
"2016-04-17 01:05:30",1553822,13.94,31.96,6.422,1.351,6.32,99.61904,-1.671,-0.462,96.5,0,109.6,13.38,-0.92,354.0
"2016-04-17 01:06:00",1553823,12.82,31.49,6.688,1.486,6.227,99.61933,-1.67,-0.459,96.5,0,109.6,13.38,-0.92,353.5
"2016-04-17 01:06:30",1553824,12.19,31.06,6.584,1.36,6.053,99.61819,-1.673,-0.458,96.5,0,109.6,13.38,-0.93,353.1
"2016-04-17 01:07:00",1553825,12.13,31.39,6.192,1.477,5.217,99.61933,-1.67,-0.453,96.5,0,109.6,13.38,-0.92,353.4
"2016-04-17 01:07:30",1553826,12.32,30.76,6.364,1.355,5.65,99.61933,-1.67,-0.46,96.5,0,109.6,13.38,-0.92,352.8
"2016-04-17 01:08:00",1553827,11.99,30.44,6.469,1.693,5.718,99.61819,-1.673,-0.458,96.5,0,109.6,13.38,-0.93,352.4
"2016-04-17 01:08:30",1553828,11.7,29.56,7.48,1.651,5.522,99.61819,-1.673,-0.456,96.5,0,109.6,13.38,-0.93,351.6
"2016-04-17 01:09:00",1553829,11.71,29.46,6.559,1.673,5.797,99.61848,-1.672,-0.451,96.5,0,109.6,13.38,-0.93,351.5
"2016-04-17 01:09:30",1553830,12.05,30.52,6.393,1.687,5.735,99.62074,-1.666,-0.448,96.5,0,109.6,13.38,-0.92,352.5
"2016-04-17 01:10:00",1553831,12.46,31.51,5.789,1.535,6.073,99.61961,-1.669,-0.425,96.5,0,109.6,13.38,-0.92,353.5
"2016-04-17 01:10:30",1553832,12.76,30.01,6.613,1.473,6.572,99.61989,-1.668,-0.47,96.5,0,109.6,13.37,-0.92,352.0
"2016-04-17 01:11:00",1553833,11.78,29.7,6.52,1.695,7.172,99.61961,-1.669,-0.451,96.5,0,109.6,13.37,-0.92,351.7
"2016-04-17 01:11:30",1553834,12.98,30.7,6.326,1.807,7.04,99.61848,-1.672,-0.456,96.5,0,109.6,13.38,-0.93,352.7
"2016-04-17 01:12:00",1553835,13.48,31.41,6.096,1.549,7.363,99.61961,-1.669,-0.46,96.5,0,109.6,13.37,-0.92,353.4
"2016-04-17 01:12:30",1553836,13.31,30.32,7.288,1.675,7.768,99.61904,-1.671,-0.45,96.5,0,109.6,13.37,-0.92,352.3
"2016-04-17 01:13:00",1553837,13.8,31.64,6.628,2.057,7.227,99.61819,-1.673,-0.417,96.5,0,109.6,13.37,-0.93,353.6
"2016-04-17 01:13:30",1553838,15.15,32.73,6.379,1.293,7.351,99.61904,-1.671,-0.453,96.5,0,109.6,13.37,-0.92,354.7
"2016-04-17 01:14:00",1553839,15.2,32.26,6.606,1.537,7.113,99.61933,-1.67,-0.438,96.5,0,109.6,13.37,-0.92,354.3
"2016-04-17 01:14:30",1553840,14.62,31.91,6.742,2.018,7.059,99.61904,-1.671,-0.442,96.5,0,109.6,13.37,-0.92,353.9
"2016-04-17 01:15:00",1553841,15.65,32.72,6.421,1.464,7.414,99.61961,-1.669,-0.439,96.5,0,109.6,13.37,-0.92,354.7
"2016-04-17 01:15:30",1553842,15.62,33.48,6.074,1.522,7.626,99.61848,-1.672,-0.44,96.5,0,109.6,13.38,-0.93,355.5
"2016-04-17 01:16:00",1553843,15.73,33.83,6.25,1.454,7.546,99.61989,-1.668,-0.421,96.5,0,109.6,13.38,-0.92,355.8
"2016-04-17 01:16:30",1553844,16.14,34.96,6.208,1.285,7.246,99.61961,-1.669,-0.452,96.5,0,109.6,13.38,-0.92,357.0
"2016-04-17 01:17:00",1553845,14.88,32.83,6.401,1.35,7.039,99.62074,-1.666,-0.459,96.5,0,109.6,13.38,-0.92,354.8
"2016-04-17 01:17:30",1553846,15.17,32.83,6.465,1.352,7.181,99.62187,-1.663,-0.453,96.5,0,109.6,13.38,-0.92,354.8
"2016-04-17 01:18:00",1553847,15.26,33.7,6.635,1.377,7.68,99.62216,-1.663,-0.432,96.5,0,109.6,13.38,-0.92,355.7
"2016-04-17 01:18:30",1553848,15.12,33.22,6.433,1.211,7.698,99.62159,-1.664,-0.421,96.5,0,109.6,13.38,-0.92,355.2
"2016-04-17 01:19:00",1553849,14.83,33.41,5.928,1.269,7.112,99.62103,-1.666,-0.424,96.5,0,109.6,13.38,-0.92,355.4
"2016-04-17 01:19:30",1553850,15.01,32.88,6.436,1.208,7.321,99.61961,-1.669,-0.434,96.5,0,109.6,13.38,-0.92,354.9
"2016-04-17 01:20:00",1553851,15.15,33.45,6.078,1.312,7.194,99.62102,-1.666,-0.431,96.5,0,109.6,13.38,-0.92,355.5
"2016-04-17 01:20:30",1553852,14.82,34.03,6.318,1.382,7.563,99.62046,-1.667,-0.478,96.5,0,109.6,13.38,-0.92,356.0
"2016-04-17 01:21:00",1553853,15.09,34.37,6.244,1.275,7.098,99.61933,-1.67,-0.444,96.5,0,109.5,13.38,-0.92,356.4
"2016-04-17 01:21:30",1553854,15,33.18,6.529,1.264,7.439,99.62017,-1.668,-0.449,96.5,0,109.6,13.38,-0.92,355.2
"2016-04-17 01:22:00",1553855,14.81,34.44,5.887,1.258,7.11,99.61989,-1.668,-0.435,96.5,0,109.6,13.38,-0.92,356.4
"2016-04-17 01:22:30",1553856,14.94,33.12,6.395,1.206,7.222,99.62017,-1.668,-0.444,96.5,0,109.6,13.38,-0.92,355.1
"2016-04-17 01:23:00",1553857,14.74,32.7,6.577,1.29,7.299,99.61989,-1.668,-0.449,96.5,0,109.6,13.38,-0.92,354.7
"2016-04-17 01:23:30",1553858,14.65,33.72,6.21,1.316,7.24,99.61989,-1.668,-0.443,96.5,0,109.6,13.38,-0.92,355.7
"2016-04-17 01:24:00",1553859,14.66,33.42,6.392,1.158,7.234,99.61904,-1.671,-0.455,96.5,0,109.6,13.38,-0.92,355.4
"2016-04-17 01:24:30",1553860,14.61,33.02,6.2,1.42,7.335,99.62017,-1.668,-0.47,96.5,0,109.6,13.38,-0.92,355.0
"2016-04-17 01:25:00",1553861,14.82,34.14,5.793,1.41,7.284,99.62102,-1.666,-0.425,96.5,0,109.6,13.38,-0.92,356.1
"2016-04-17 01:25:30",1553862,14.93,33.85,6.138,1.314,7.557,99.62074,-1.666,-0.44,96.5,0,109.6,13.38,-0.92,355.9
"2016-04-17 01:26:00",1553863,14.2,33.23,6.375,1.338,6.836,99.62186,-1.663,-0.458,96.5,0,109.6,13.38,-0.92,355.2
"2016-04-17 01:26:30",1553864,14.46,33,6.458,1.256,7.029,99.62131,-1.665,-0.457,96.5,0,109.6,13.38,-0.92,355.0
"2016-04-17 01:27:00",1553865,13.74,31.99,7.095,2.111,7.279,99.62215,-1.663,-0.455,96.5,0,109.6,13.38,-0.92,354.0
"2016-04-17 01:27:30",1553866,14.73,33.07,6.336,1.272,7.677,99.62385,-1.658,-0.455,96.5,0,109.6,13.37,-0.91,355.1
"2016-04-17 01:28:00",1553867,15.03,33.48,6.18,1.262,7.473,99.62413,-1.658,-0.421,96.5,0,109.6,13.38,-0.91,355.5
"2016-04-17 01:28:30",1553868,15.03,33.37,6.273,1.199,7.384,99.62328,-1.66,-0.451,96.5,0,109.6,13.37,-0.91,355.4
"2016-04-17 01:29:00",1553869,15.17,33.96,6.566,1.274,7.297,99.62385,-1.658,-0.461,96.5,0,109.6,13.37,-0.91,356.0
"2016-04-17 01:29:30",1553870,14.87,34.6,6.127,1.302,7.234,99.62186,-1.663,-0.449,96.5,0,109.5,13.37,-0.92,356.6
"2016-04-17 01:30:00",1553871,14.64,34.65,6.85,1.396,7.372,99.62186,-1.663,-0.455,96.5,0,109.6,13.37,-0.92,356.6
"2016-04-17 01:30:30",1553872,14.73,36.39,6.404,1.444,7.564,99.62215,-1.663,-0.457,96.5,0,109.5,13.37,-0.92,358.4
"2016-04-17 01:31:00",1553873,14.3,36.45,5.963,1.271,7.28,99.62102,-1.666,-0.425,96.5,0,109.6,13.37,-0.92,358.5
"2016-04-17 01:31:30",1553874,14.38,35.61,6.745,1.161,6.796,99.62215,-1.663,-0.465,96.5,0,109.6,13.37,-0.92,357.6
"2016-04-17 01:32:00",1553875,14.74,34.7,6.272,1.527,7.316,99.62158,-1.664,-0.466,96.5,0,109.6,13.37,-0.92,356.7
"2016-04-17 01:32:30",1553876,14.62,35.43,6.505,1.42,7.686,99.62186,-1.663,-0.441,96.5,0,109.6,13.38,-0.92,357.4
"2016-04-17 01:33:00",1553877,13.71,37.07,6.783,1.29,7.117,99.62385,-1.658,-0.444,96.5,0,109.6,13.38,-0.91,359.1
"2016-04-17 01:33:30",1553878,13.96,36.48,6.753,1.365,7.455,99.62413,-1.658,-0.451,96.5,0,109.6,13.38,-0.91,358.5
"2016-04-17 01:34:00",1553879,13.98,37.84,6.113,1.322,7.295,99.62215,-1.663,-0.424,96.5,0,109.6,13.38,-0.92,359.8
"2016-04-17 01:34:30",1553880,14.56,36.89,6.492,1.636,7.225,99.62244,-1.662,-0.46,96.5,0,109.6,13.38,-0.92,358.9
"2016-04-17 01:35:00",1553881,14.14,36.41,6.478,1.485,7.722,99.62413,-1.658,-0.46,96.5,0,109.6,13.38,-0.91,358.4
"2016-04-17 01:35:30",1553882,14.82,36.31,6.084,1.357,7.338,99.62357,-1.659,-0.443,96.5,0,109.6,13.38,-0.91,358.3
"2016-04-17 01:36:00",1553883,13.48,36.67,6.556,1.387,7.339,99.62159,-1.664,-0.476,96.5,0,109.6,13.38,-0.92,358.7
"2016-04-17 01:36:30",1553884,12.79,37.26,6.508,1.588,7.654,99.62582,-1.653,-0.451,96.5,0,109.6,13.38,-0.91,359.3
"2016-04-17 01:37:00",1553885,14.79,34.08,6.226,1.479,7.402,99.62413,-1.658,-0.431,96.5,0,109.6,13.38,-0.91,356.1
"2016-04-17 01:37:30",1553886,14.49,36.58,6.197,1.224,7.471,99.62526,-1.655,-0.439,96.5,0,109.6,13.38,-0.91,358.6
"2016-04-17 01:38:00",1553887,14.3,34.89,6.098,1.284,7.276,99.62639,-1.652,-0.43,96.5,0,109.6,13.38,-0.91,356.9
"2016-04-17 01:38:30",1553888,13.93,33.01,6.399,1.196,7.131,99.62669,-1.651,-0.448,96.5,0,109.6,13.38,-0.90,355.0
"2016-04-17 01:39:00",1553889,13.84,34.59,6.341,1.36,7.455,99.62923,-1.645,-0.448,96.5,0,109.6,13.38,-0.90,356.6
"2016-04-17 01:39:30",1553890,13.69,34.11,6.897,1.363,7.759,99.62894,-1.645,-0.457,96.5,0,109.6,13.38,-0.90,356.1
"2016-04-17 01:40:00",1553891,13.37,34.02,6.211,1.214,7.743,99.62952,-1.644,-0.425,96.5,0,109.6,13.38,-0.90,356.0
"2016-04-17 01:40:30",1553892,13.46,33.36,6.305,1.347,7.224,99.63149,-1.639,-0.433,96.5,0,109.6,13.38,-0.89,355.4
"2016-04-17 01:41:00",1553893,13.66,32.45,6.396,1.247,7.28,99.63065,-1.641,-0.43,96.5,0,109.6,13.38,-0.89,354.5
"2016-04-17 01:41:30",1553894,13.33,31.59,6.753,1.291,7.182,99.63376,-1.633,-0.433,96.5,0,109.6,13.38,-0.89,353.6
"2016-04-17 01:42:00",1553895,12.81,32.59,6.444,1.353,7.581,99.63489,-1.63,-0.425,96.5,0,109.6,13.38,-0.88,354.6
"2016-04-17 01:42:30",1553896,12.63,32.27,6.345,1.228,7.623,99.63348,-1.634,-0.404,96.5,0,109.6,13.38,-0.89,354.3
"2016-04-17 01:43:00",1553897,13.02,33.03,6.262,1.217,7.224,99.63519,-1.629,-0.418,96.5,0,109.6,13.38,-0.88,355.0
"2016-04-17 01:43:30",1553898,12.95,32.84,6.318,1.223,7.243,99.63687,-1.625,-0.431,96.5,0,109.6,13.38,-0.88,354.8
"2016-04-17 01:44:00",1553899,12.68,32.45,6.302,1.115,7.165,99.63688,-1.625,-0.433,96.5,0,109.6,13.38,-0.88,354.5
"2016-04-17 01:44:30",1553900,12.77,32.23,6.675,1.303,7.524,99.63717,-1.624,-0.439,96.5,0,109.6,13.38,-0.88,354.2
"2016-04-17 01:45:00",1553901,12.81,33.32,5.903,1.315,7.01,99.63886,-1.62,-0.397,96.5,0,109.5,13.37,-0.87,355.3